{"data":{"norad_id":66653,"epoch":"2026-05-24T17:58:17.340384Z","epoch_age_seconds":96726,"freshness":"FRESH","line1":"1 66653U 25274D   26144.74881181  .00001513  00000+0  15201-3 0  9992","line2":"2 66653  97.7483  74.2056 0014204  75.1984 285.0808 14.92676757 26716","mean_motion":14.92676757,"eccentricity":0.0014204,"inclination_deg":97.7483,"raan_deg":74.2056,"arg_perigee_deg":75.1984,"mean_anomaly_deg":285.0808,"bstar":0.00015201,"rev_number":2671,"period_min":96.470986986769,"perigee_km":579.69626689227,"apogee_km":599.49019493224,"semimajor_km":6967.7302309123,"source":"CELESTRAK","updated_at":"2026-05-25T13:38:06.380238Z"}}